{"data":{"norad_id":59915,"intl_designator":"2024-104A","name":"PAKSAT-MM1","alt_names":[],"object_type":"PAYLOAD","status":"ACTIVE","operator":null,"country":"PAKI","launch_date":"2024-05-30","launch_site_code":"XICLF","launch_vehicle":null,"mission":null,"orbit_class":"UNKNOWN","rcs_meters":null,"size_class":null,"mass_kg":null,"dimensions":null,"purposes":["comms"],"wikipedia_slug":null,"has_3d_model":false,"image_url":null,"decayed_at":null,"tle_current":{"epoch":"2026-09-19T18:36:38.867040Z","epoch_age_seconds":88444,"freshness":"FRESH","line1":"1 59915U 24104A   26262.77544985  .00000149  00000+0  00000+0 0  9999","line2":"2 59915   0.0293 216.4807 0002257 317.8725 141.6692  1.00273667  8472","mean_motion":1.00273667,"eccentricity":0.0002257,"inclination_deg":0.0293,"raan_deg":216.4807,"arg_perigee_deg":317.8725,"mean_anomaly_deg":141.6692,"bstar":0,"rev_number":847,"period_min":1436.0699504487,"perigee_km":35776.550915596,"apogee_km":35795.583837452,"semimajor_km":42164.204376524,"source":"CELESTRAK","updated_at":"2026-09-20T09:00:35.337197Z"}}}